GW6609 Weather Reports


time (UTC)temp
C
wind
direction
speed
KPH
gust
KPH
rain 1hr
cm
rain 24hr
cm
rain mn
cm
humidity
%
barometer
mb
20260509034114 28 120 4.8 8.0 0.00 0.00 0.03 80 1009.0
20260509033614 28 238 3.2 4.8 0.00 0.00 0.03 80 1009.0
20260509033114 28 159 4.8 4.8 0.00 0.00 0.03 81 1009.0
20260509032614 28 171 4.8 8.0 0.00 0.00 0.03 81 1009.0
20260509032114 28 153 4.8 8.0 0.00 0.00 0.03 80 1009.0
20260509031614 28 113 3.2 3.2 0.00 0.00 0.03 80 1009.0
20260509031115 28 41 3.2 3.2 0.00 0.00 0.03 79 1009.0
20260509030615 28 101 3.2 4.8 0.00 0.00 0.03 79 1009.0
20260509030114 29 109 6.4 8.0 0.00 0.00 0.03 78 1009.0
20260509025614 29 87 4.8 8.0 0.00 0.00 0.03 78 1009.0
20260509025114 28 226 4.8 8.0 0.00 0.00 0.03 79 1009.0
20260509024615 28 92 4.8 8.0 0.00 0.00 0.03 82 1008.0
20260509024114 28 184 4.8 8.0 0.00 0.00 0.03 82 1008.0
20260509023614 27 90 3.2 3.2 0.00 0.00 0.03 84 1009.0
20260509023115 27 101 0.0 1.6 0.00 0.00 0.03 87 1008.0
20260509022615 26 90 1.6 1.6 0.00 0.00 0.03 87 1008.0
20260509022114 26 89 0.0 0.0 0.00 0.00 0.03 88 1008.0
20260509021614 26 94 3.2 3.2 0.00 0.00 0.03 88 1008.0
20260509021114 26 89 3.2 3.2 0.00 0.00 0.03 89 1008.0
20260509020614 26 95 1.6 1.6 0.00 0.00 0.03 89 1008.0
20260509020114 26 97 1.6 1.6 0.00 0.00 0.03 89 1008.0
20260509015614 26 95 0.0 0.0 0.00 0.00 0.03 90 1008.0
20260509015114 26 98 1.6 1.6 0.00 0.00 0.03 90 1008.0
20260509014614 26 98 0.0 0.0 0.00 0.00 0.03 90 1008.0
20260509014116 26 102 0.0 0.0 0.00 0.00 0.03 90 1008.0
20260509013614 25 107 1.6 1.6 0.00 0.00 0.03 90 1007.0
20260509013115 25 95 0.0 1.6 0.00 0.00 0.03 90 1007.0
20260509012614 25 94 1.6 1.6 0.00 0.00 0.03 90 1007.0
20260509012115 25 91 1.6 1.6 0.18 0.00 0.03 90 1007.0
20260509011614 25 91 1.6 1.6 0.18 0.00 0.03 90 1007.0
20260509011114 25 99 3.2 4.8 0.00 0.00 0.00 90 1007.0
20260509010614 25 94 0.0 1.6 0.00 0.00 0.00 90 1007.0
20260509010114 25 87 0.0 0.0 0.00 0.00 0.00 90 1007.0
20260509005614 25 80 1.6 1.6 0.00 0.00 0.00 89 1007.0
20260509005115 25 98 1.6 3.2 0.00 0.00 0.00 89 1007.0
20260509004616 25 102 1.6 1.6 0.00 0.00 0.00 89 1007.0
20260509004114 25 87 1.6 1.6 0.00 0.00 0.00 89 1007.0
20260509003614 25 79 0.0 0.0 0.00 0.00 0.00 89 1007.0
20260509003114 25 81 1.6 3.2 0.00 0.00 0.00 89 1007.0
20260509002615 25 79 1.6 3.2 0.00 0.00 0.00 89 1007.0
20260509002114 25 93 1.6 3.2 0.00 0.00 0.00 89 1007.0
20260509001614 26 72 3.2 3.2 0.00 0.00 0.00 89 1007.0
20260509001114 26 103 3.2 3.2 0.00 0.00 0.00 88 1007.0
20260509000614 26 104 1.6 1.6 0.00 0.00 0.00 88 1006.0
20260509000115 26 85 3.2 3.2 0.00 0.00 0.00 87 1007.0
20260508235614 26 96 3.2 3.2 0.00 0.00 0.00 87 1007.0
20260508235115 26 164 4.8 4.8 0.00 0.00 0.00 86 1006.0
20260508234615 26 92 4.8 4.8 0.00 0.00 0.00 86 1007.0
20260508234114 26 78 1.6 1.6 0.00 0.00 0.00 86 1006.0
20260508233614 26 80 1.6 1.6 0.00 0.00 0.00 86 1006.0
20260508233114 26 75 1.6 1.6 0.00 0.00 0.00 86 1006.0
20260508232614 26 74 1.6 1.6 0.00 0.00 0.00 86 1006.0
20260508232114 26 74 1.6 1.6 0.00 0.00 0.00 86 1006.0
20260508231616 26 64 0.0 1.6 0.00 0.00 0.00 86 1006.0
20260508231115 26 68 0.0 1.6 0.00 0.00 0.00 86 1006.0
20260508230614 26 103 1.6 3.2 0.00 0.00 0.00 85 1006.0
20260508230114 26 112 3.2 3.2 0.00 0.00 0.00 86 1006.0
20260508225614 26 142 6.4 8.0 0.00 0.00 0.00 87 1006.0
20260508225114 26 98 4.8 4.8 0.00 0.00 0.00 88 1006.0
20260508224615 26 54 0.0 1.6 0.00 0.00 0.00 88 1006.0
20260508224114 26 22 4.8 4.8 0.00 0.00 0.00 88 1006.0
20260508223615 26 56 1.6 3.2 0.00 0.00 0.00 88 1006.0
20260508223115 26 84 1.6 3.2 0.00 0.00 0.00 88 1006.0
20260508222614 26 77 1.6 1.6 0.00 0.00 0.00 88 1006.0
20260508222115 26 73 0.0 1.6 0.00 0.00 0.00 88 1006.0
20260508221615 26 74 0.0 0.0 0.00 0.00 0.00 88 1006.0
20260508221114 26 78 1.6 1.6 0.00 0.00 0.00 88 1006.0
20260508220616 26 74 0.0 0.0 0.00 0.00 0.00 89 1006.0
20260508220114 26 75 3.2 4.8 0.00 0.00 0.00 89 1006.0
20260508215615 26 73 0.0 0.0 0.00 0.00 0.00 89 1006.0
20260508215114 26 72 0.0 0.0 0.00 0.00 0.00 89 1006.0
20260508214614 26 73 0.0 1.6 0.00 0.00 0.00 89 1006.0
20260508214114 26 75 0.0 0.0 0.00 0.00 0.00 89 1006.0
20260508213614 26 76 1.6 1.6 0.00 0.00 0.00 89 1006.0
20260508213114 26 78 0.0 0.0 0.00 0.00 0.00 89 1006.0
20260508212615 26 72 0.0 1.6 0.00 0.00 0.00 89 1006.0
20260508212115 26 117 1.6 3.2 0.00 0.00 0.00 89 1006.0
20260508211614 26 75 4.8 4.8 0.00 0.00 0.00 89 1006.0
20260508211115 26 74 0.0 1.6 0.00 0.00 0.00 89 1006.0
20260508210614 26 96 3.2 3.2 0.00 0.00 0.00 89 1006.0
20260508210115 26 83 1.6 1.6 0.00 0.00 0.00 89 1006.0
20260508205614 26 83 1.6 3.2 0.00 0.00 0.00 89 1006.0
20260508205114 26 85 1.6 3.2 0.00 0.00 0.00 89 1006.0
20260508204618 26 78 1.6 1.6 0.00 0.00 0.00 89 1006.0
20260508204115 26 76 0.0 0.0 0.00 0.00 0.00 88 1006.0
20260508203615 26 81 0.0 0.0 0.00 0.00 0.00 88 1006.0
20260508203114 26 81 0.0 0.0 0.00 0.00 0.00 88 1006.0
20260508202614 26 78 0.0 1.6 0.00 0.00 0.00 88 1006.0
20260508202114 26 75 0.0 0.0 0.00 0.00 0.00 88 1006.0
20260508201614 26 78 0.0 0.0 0.00 0.00 0.00 88 1006.0
20260508201115 26 81 1.6 1.6 0.00 0.00 0.00 88 1006.0
20260508200615 26 83 0.0 1.6 0.00 0.00 0.00 88 1006.0
20260508200115 26 83 0.0 0.0 0.00 0.00 0.00 88 1006.0
20260508195616 26 83 0.0 0.0 0.00 0.00 0.00 88 1006.0
20260508195114 26 83 0.0 0.0 0.00 0.00 0.00 88 1006.0
20260508194615 26 83 0.0 1.6 0.00 0.00 0.00 88 1007.0
20260508194115 26 83 0.0 1.6 0.00 0.00 0.00 88 1007.0
20260508193614 26 83 0.0 0.0 0.00 0.00 0.00 88 1007.0
20260508193117 26 82 0.0 0.0 0.00 0.00 0.00 88 1007.0
20260508192614 26 83 0.0 1.6 0.00 0.00 0.00 88 1007.0
20260508192114 26 83 0.0 1.6 0.00 0.00 0.00 88 1007.0
20260508191616 26 83 0.0 0.0 0.00 0.00 0.00 88 1007.0
20260508191114 26 83 0.0 0.0 0.00 0.00 0.00 88 1007.0
20260508190615 26 83 1.6 1.6 0.00 0.00 0.00 88 1007.0
20260508190115 26 83 0.0 0.0 0.00 0.00 0.00 88 1007.0
20260508185615 26 83 0.0 0.0 0.00 0.00 0.00 88 1007.0
20260508185114 26 83 0.0 0.0 0.00 0.00 0.00 88 1007.0
20260508184615 26 84 0.0 0.0 0.00 0.00 0.00 88 1007.0
20260508184115 26 84 1.6 1.6 0.00 0.00 0.00 88 1007.0
20260508183615 26 81 0.0 0.0 0.00 0.00 0.00 88 1007.0
20260508183115 26 81 1.6 1.6 0.00 0.00 3.51 88 1008.0
20260508182614 26 81 1.6 1.6 0.00 0.00 3.51 87 1008.0
20260508182115 26 81 0.0 0.0 0.00 0.00 3.51 87 1008.0
20260508181614 26 81 0.0 1.6 0.00 0.00 3.51 87 1008.0
20260508181115 26 81 0.0 0.0 0.00 0.00 3.51 87 1008.0
20260508180614 26 81 0.0 0.0 0.00 0.00 3.51 87 1008.0
20260508180115 26 81 0.0 0.0 0.00 0.00 3.51 87 1008.0
20260508175614 26 81 0.0 0.0 0.00 0.00 3.51 87 1008.0
20260508175115 26 81 0.0 1.6 0.00 0.00 3.51 87 1008.0
20260508174614 26 81 1.6 1.6 0.00 0.00 3.51 87 1008.0
20260508174114 26 80 0.0 0.0 0.00 0.00 3.51 87 1008.0
20260508173614 26 80 0.0 0.0 0.00 0.00 3.51 87 1008.0
20260508173117 26 80 0.0 1.6 0.00 0.00 3.51 87 1008.0
20260508172614 26 80 0.0 0.0 0.00 0.00 3.51 87 1008.0
20260508172114 26 80 0.0 1.6 0.00 0.00 3.51 87 1008.0
20260508171614 26 77 0.0 0.0 0.00 0.00 3.51 87 1008.0
20260508171116 26 77 0.0 0.0 0.00 0.00 3.51 87 1008.0
20260508170615 26 77 0.0 0.0 0.00 0.00 3.51 88 1008.0
20260508170115 26 77 0.0 0.0 0.00 0.00 3.51 87 1008.0
20260508165615 26 77 0.0 0.0 0.00 0.00 3.51 87 1008.0
20260508165114 26 78 1.6 1.6 0.00 0.00 3.51 87 1008.0
20260508164614 26 74 0.0 1.6 0.00 0.00 3.51 87 1008.0
20260508164114 26 73 1.6 1.6 0.00 0.00 3.51 87 1008.0
20260508163615 27 73 1.6 1.6 0.00 0.00 3.51 86 1008.0
20260508163115 27 74 1.6 1.6 0.00 0.00 3.51 86 1008.0
20260508162615 27 74 0.0 1.6 0.00 0.00 3.51 85 1008.0
20260508162114 26 56 0.0 0.0 0.00 0.00 3.51 85 1008.0
20260508161615 26 56 0.0 0.0 0.00 0.00 3.51 85 1008.0
20260508161114 26 56 0.0 0.0 0.00 0.00 3.51 85 1008.0
20260508160616 26 55 0.0 0.0 0.00 0.00 3.51 85 1008.0
20260508160115 26 55 0.0 1.6 0.00 0.00 3.51 85 1008.0
20260508155615 26 55 0.0 0.0 0.00 0.00 3.51 85 1008.0
20260508155115 26 55 0.0 0.0 0.00 0.00 3.51 85 1008.0
20260508154615 27 68 1.6 1.6 0.00 0.00 3.51 85 1008.0
20260508154115 27 59 1.6 1.6 0.00 0.00 3.51 85 1008.0
20260508153615 27 82 0.0 0.0 0.00 0.00 3.51 84 1008.0
20260508153114 27 82 0.0 1.6 0.00 0.00 3.51 84 1008.0
20260508152615 27 82 0.0 0.0 0.00 0.00 3.51 84 1008.0
20260508152114 27 82 0.0 0.0 0.00 0.00 3.51 84 1008.0
20260508151615 27 82 0.0 0.0 0.00 0.00 3.51 84 1008.0
20260508151115 27 82 1.6 1.6 0.00 0.00 3.51 84 1008.0
20260508150616 27 81 1.6 1.6 0.00 0.00 3.51 83 1008.0
20260508150114 27 81 1.6 1.6 0.00 0.00 3.51 83 1008.0
20260508145614 27 81 0.0 0.0 0.00 0.00 3.51 83 1008.0
20260508145115 27 80 0.0 0.0 0.00 0.00 3.51 83 1007.0
20260508144616 27 79 0.0 0.0 0.00 0.00 3.51 83 1007.0
20260508144114 27 77 0.0 1.6 0.00 0.00 3.51 83 1007.0
20260508143615 27 73 0.0 0.0 0.00 0.00 3.51 83 1007.0
20260508143115 27 72 0.0 0.0 0.00 0.00 3.51 83 1007.0
20260508142615 27 93 1.6 1.6 0.00 0.00 3.51 82 1007.0
20260508142115 27 75 0.0 0.0 0.00 0.00 3.51 82 1007.0
20260508141614 27 87 1.6 1.6 0.00 0.00 3.51 82 1007.0
20260508141115 27 73 0.0 0.0 0.00 0.00 3.51 82 1007.0
20260508140614 27 76 1.6 1.6 0.00 0.00 3.51 81 1007.0
20260508140114 27 67 0.0 0.0 0.00 0.00 3.51 81 1007.0
20260508135614 27 79 1.6 3.2 0.00 0.00 3.51 80 1007.0
20260508135114 27 73 1.6 1.6 0.00 0.00 3.51 79 1007.0
20260508134614 27 62 1.6 3.2 0.00 0.00 3.51 79 1007.0
20260508134114 27 48 3.2 4.8 0.00 0.00 3.51 79 1006.0
20260508133616 27 179 3.2 4.8 0.00 0.00 3.51 79 1007.0
20260508133114 27 64 0.0 1.6 0.00 0.00 3.51 79 1006.0
20260508132615 27 71 3.2 3.2 0.00 0.00 3.51 79 1006.0
20260508132114 27 21 6.4 8.0 0.00 0.00 3.51 79 1006.0
20260508131614 27 119 3.2 4.8 0.00 0.00 3.51 79 1006.0
20260508131115 27 43 4.8 4.8 0.00 0.00 3.51 79 1006.0
20260508130615 27 72 4.8 8.0 0.00 0.00 3.51 79 1007.0
20260508130116 27 104 4.8 4.8 0.00 0.00 3.51 78 1007.0
20260508125615 28 246 8.0 11.3 0.00 0.00 3.51 77 1006.0
20260508125115 28 174 6.4 8.0 0.00 0.00 3.51 77 1006.0
20260508124614 28 225 14.5 14.5 0.00 0.00 3.51 76 1006.0
20260508124114 28 274 8.0 9.7 0.00 0.00 3.51 77 1006.0
20260508123614 28 266 4.8 4.8 0.00 0.00 3.51 77 1006.0
20260508123114 28 67 6.4 8.0 0.00 0.00 3.51 77 1006.0
20260508122614 28 315 3.2 8.0 0.00 0.00 3.51 76 1006.0
20260508122115 28 56 4.8 8.0 0.00 0.00 3.51 76 1006.0
20260508121615 28 231 11.3 14.5 0.00 0.00 3.51 76 1006.0
20260508121115 28 128 4.8 4.8 0.00 0.00 3.51 75 1006.0
20260508120614 28 69 6.4 8.0 0.00 0.00 3.51 75 1006.0
20260508120115 28 277 4.8 9.7 0.00 0.00 3.51 75 1006.0
20260508115615 28 76 3.2 4.8 0.00 0.00 3.51 75 1005.0
20260508115114 28 94 1.6 3.2 0.00 0.00 3.51 74 1006.0
20260508114616 28 261 9.7 11.3 0.00 0.00 3.51 73 1006.0
20260508114115 28 53 1.6 1.6 0.00 0.00 3.51 73 1006.0
20260508113615 28 103 4.8 8.0 0.00 0.00 3.51 73 1005.0
20260508113115 28 270 6.4 8.0 0.00 0.00 3.51 74 1005.0
20260508112614 28 223 4.8 8.0 0.00 0.00 3.51 74 1005.0
20260508112114 28 26 4.8 9.7 0.00 0.00 3.51 74 1005.0
20260508111614 28 234 6.4 8.0 0.00 0.00 3.51 73 1005.0
20260508111114 28 55 4.8 8.0 0.00 0.00 3.51 74 1005.0
20260508110614 29 186 3.2 4.8 0.00 0.00 3.51 74 1005.0
20260508110114 29 59 1.6 1.6 0.00 0.00 3.51 73 1005.0
20260508105615 29 60 4.8 8.0 0.00 0.00 3.51 73 1005.0
20260508105115 29 208 9.7 11.3 0.00 0.00 3.51 74 1005.0
20260508104614 28 140 8.0 9.7 0.00 0.00 3.51 74 1005.0
20260508104115 29 240 8.0 9.7 0.00 0.00 3.51 74 1005.0
20260508103615 29 247 8.0 14.5 0.00 0.00 3.51 74 1005.0
20260508103114 29 31 6.4 9.7 0.00 0.00 3.51 77 1005.0
20260508102614 29 69 3.2 3.2 0.00 0.00 3.51 77 1005.0
20260508102115 29 271 9.7 11.3 0.00 0.00 3.51 76 1005.0
20260508101614 29 127 8.0 11.3 0.00 0.00 3.51 77 1005.0
20260508101114 29 16 4.8 4.8 0.00 0.00 3.51 77 1005.0
20260508100615 29 73 3.2 4.8 0.00 0.00 3.51 77 1005.0
20260508100116 29 62 4.8 8.0 0.00 0.00 3.51 76 1005.0
20260508095615 29 280 4.8 12.9 0.00 0.00 3.51 77 1005.0
20260508095115 29 232 8.0 11.3 0.00 0.00 3.51 76 1005.0
20260508094615 29 249 8.0 12.9 0.00 0.00 3.51 76 1005.0
20260508094115 29 129 3.2 4.8 0.00 0.00 3.51 77 1006.0
20260508093615 29 54 4.8 8.0 0.00 0.00 3.51 77 1006.0
20260508093114 29 213 4.8 8.0 0.00 0.00 3.51 77 1006.0
20260508092614 29 331 4.8 4.8 0.00 0.00 3.51 77 1006.0
20260508092114 29 96 4.8 8.0 0.00 0.00 3.51 79 1005.0
20260508091616 29 63 6.4 9.7 0.00 0.00 3.51 79 1005.0
20260508091116 29 63 4.8 4.8 0.00 0.00 3.51 79 1005.0
20260508090615 28 25 6.4 8.0 0.00 0.00 3.51 80 1006.0
20260508090114 28 276 6.4 11.3 0.00 0.00 3.51 83 1006.0
20260508085615 27 346 4.8 8.0 0.00 0.00 3.51 86 1005.0
20260508085114 27 204 8.0 11.3 0.00 0.00 3.51 89 1005.0
20260508084614 27 332 8.0 9.7 0.00 0.00 3.51 90 1006.0
20260508084114 26 24 1.6 1.6 0.00 0.00 3.51 90 1005.0
20260508083616 26 45 3.2 3.2 0.00 0.00 3.51 90 1005.0
20260508083116 25 47 1.6 1.6 0.00 0.00 3.51 90 1006.0
20260508082616 25 54 3.2 3.2 0.00 0.00 3.51 89 1006.0
20260508082116 25 60 0.0 1.6 0.00 0.00 3.51 90 1006.0
20260508081615 24 60 0.0 0.0 0.00 0.00 3.51 90 1006.0
20260508081114 24 61 0.0 1.6 0.00 0.00 3.51 90 1006.0
20260508080614 24 60 1.6 3.2 0.00 0.00 3.51 90 1006.0
20260508080114 23 66 1.6 3.2 0.13 0.00 3.51 90 1006.0
20260508075615 23 65 0.0 1.6 1.98 0.00 3.51 90 1007.0
20260508075114 23 70 0.0 0.0 3.07 0.00 3.48 90 1006.0
20260508074614 23 60 1.6 1.6 4.75 0.00 3.25 90 1007.0
20260508074114 23 100 3.2 4.8 8.99 0.00 2.97 90 1007.0
20260508073614 25 64 9.7 12.9 13.39 0.00 2.41 90 1007.0
20260508073114 25 152 12.9 17.7 8.33 0.00 1.40 89 1007.0
20260508072615 28 205 27.4 43.5 0.89 0.00 0.15 83 1007.0
20260508072114 31 76 4.8 8.0 0.00 0.00 0.00 66 1007.0
20260508071614 31 53 3.2 3.2 0.00 0.00 0.00 66 1006.0
20260508071114 31 72 1.6 1.6 0.00 0.00 0.00 68 1006.0
20260508070614 30 64 0.0 1.6 0.00 0.00 0.00 68 1006.0
20260508070114 30 133 3.2 3.2 0.00 0.00 0.00 72 1006.0
20260508065615 31 95 1.6 3.2 0.00 0.00 0.00 65 1006.0
20260508065114 32 190 4.8 8.0 0.00 0.00 0.00 62 1006.0
20260508064615 32 251 9.7 11.3 0.00 0.00 0.00 60 1006.0
20260508064114 32 316 6.4 9.7 0.00 0.00 0.00 60 1007.0
20260508063614 32 51 6.4 9.7 0.00 0.00 0.00 60 1007.0
20260508063114 32 246 8.0 9.7 0.00 0.00 0.00 59 1007.0
20260508062614 33 196 9.7 12.9 0.00 0.00 0.00 58 1007.0
20260508062114 33 241 9.7 11.3 0.00 0.00 0.00 57 1007.0
20260508061614 33 81 3.2 3.2 0.00 0.00 0.00 55 1007.0
20260508061115 35 154 3.2 8.0 0.00 0.00 0.00 53 1007.0
20260508060614 35 95 4.8 9.7 0.00 0.00 0.00 52 1007.0
20260508060114 34 298 11.3 11.3 0.00 0.00 0.00 54 1007.0
20260508055614 34 80 3.2 3.2 0.00 0.00 0.00 54 1007.0
20260508055114 34 56 3.2 4.8 0.00 0.00 0.00 55 1007.0
20260508054615 33 219 11.3 12.9 0.00 0.00 0.00 56 1007.0
20260508054114 32 176 8.0 11.3 0.00 0.00 0.00 60 1007.0
20260508053614 32 185 4.8 11.3 0.00 0.00 0.00 59 1007.0
20260508053115 33 201 12.9 16.1 0.00 0.00 0.00 57 1007.0
20260508052615 32 65 4.8 4.8 0.00 0.00 0.00 62 1007.0
20260508052114 32 80 1.6 1.6 0.00 0.00 0.00 61 1007.0
20260508051614 32 294 6.4 9.7 0.00 0.00 0.00 62 1007.0
20260508051114 33 93 1.6 3.2 0.00 0.00 0.00 59 1007.0
20260508050614 33 66 1.6 1.6 0.00 0.00 0.00 57 1007.0
20260508050114 32 76 4.8 4.8 0.00 0.00 0.00 61 1007.0
20260508045614 32 96 6.4 9.7 0.00 0.00 0.00 64 1007.0
20260508045115 32 120 4.8 8.0 0.00 0.00 0.00 62 1007.0
20260508044614 32 146 6.4 9.7 0.00 0.00 0.00 64 1008.0
20260508044114 31 233 9.7 11.3 0.00 0.00 0.00 65 1008.0
20260508043615 31 176 8.0 12.9 0.00 0.00 0.00 66 1008.0
20260508043114 32 209 4.8 9.7 0.00 0.00 0.00 64 1008.0
20260508042614 32 147 9.7 11.3 0.00 0.00 0.00 63 1008.0
20260508042114 32 95 4.8 4.8 0.00 0.00 0.00 65 1008.0
20260508041614 32 32 4.8 8.0 0.00 0.00 0.00 65 1008.0
20260508041114 31 318 8.0 9.7 0.00 0.00 0.00 64 1008.0
20260508040614 32 343 3.2 3.2 0.00 0.00 0.00 62 1008.0
20260508040115 32 142 4.8 4.8 0.00 0.00 0.00 63 1008.0
20260508035614 32 67 4.8 8.0 0.00 0.00 0.00 65 1008.0
20260508035114 32 274 4.8 8.0 0.00 0.00 0.00 63 1008.0
20260508034614 31 79 6.4 9.7 0.00 0.00 0.00 66 1008.0